Location: Colle Santa Colomba
(42.0333°N, 12.5667°E)
Time: 03:20:28
(UTC+00:00)

NOSS 2-3 (D) - Pass Details

Date: 25 October 2021
Orbit: 538 x 1672 km, 63.3° (Epoch: 25 November)

Event Time Altitude Azimuth Distance (km) Brightness Sun altitude
Rises 17:24:03 0° 228° (SW) 2,680 7.7 -13.8°
Reaches altitude 10° 17:26:10 10° 233° (SW) 1,808 6.9 -14.2°
Maximum altitude 17:30:01 51° 311° (NW) 735 4.2 -14.9°
Drops below altitude 10° 17:34:29 10° 28° (NNE) 2,089 6.0 -15.7°
Enters shadow 17:35:06 - 29° (NNE) 2,340 6.2 -15.9°
